Location: Unspecified
(43.4680°N, 87.1740°E)
Time: 21:11:39
(UTC+00:00)

SL-16 R/B - Pass Details

Date: 17 April 2021
Orbit: 840 x 849 km, 71.0° (Epoch: 11 May)

Event Time Altitude Azimuth Distance (km) Brightness Sun altitude
Rises 17:22:03 0° 326° (NNW) 3,420 6.3 -34.7°
Reaches altitude 10° 17:24:43 10° 318° (NW) 2,479 5.3 -34.8°
Enters shadow 17:27:46 26° 293° (WNW) 1,599 3.8 -34.9°
